Port Taufiq, Egypt
Current Conditions -  °F | °C
As of 4:30 AM on Thursday 23 Oct 2014 (Local Time) from HECA Reporting Station
Haze Haze  
Wind Chill: 66°   Ceiling: Unl
Heat Index: 66°   Visibility: 2.5mi
Dew Point: 50°   Wind: 5mph
Humidity: 56%   Direction: 140°SE
Pressure: 29.97"   Gusts: NA
Location:  29.95°N, 32.57°E
Report Text: HECA 230230Z 14004KT 4000 HZ NSC 19/10 Q1015 NOSIG
Loading
Personal Weather Stations






























Interactive Weather Map
Tropical Storm Tracking
New forecast layout! Learn more

10-Day Weather Forecast

Advertisements
Track Severe Weather on mobile